Printer-friendly version

IAU Minor Planet Center

Minor Planet Center

MPEC 2009-F61 : 2007 LA15

The following Minor Planet Electronic Circular may be linked-to from your own Web pages, but must not otherwise be redistributed electronically.


Read MPEC 2009-F60 Read MPEC 2009-F62


M.P.E.C. 2009-F61                                Issued 2009 Mar. 22, 21:24 UT

     The Minor Planet Electronic Circulars contain information on unusual
         minor planets and routine data on comets.  They are published
   on behalf of Commission 20 of the International Astronomical Union by the
          Minor Planet Center, Smithsonian Astrophysical Observatory,
                          Cambridge, MA 02138, U.S.A.

             Prepared using the Tamkin Foundation Computer Network

                              MPC@CFA.HARVARD.EDU
          URL http://www.cfa.harvard.edu/iau/mpc.html  ISSN 1523-6714

                                   2007 LA15

                           Revision to MPEC 2007-L51

Additional Observations:
     K07L15A  C2009 02 23.32154 13 01 15.63 -00 00 51.9          22.7 V EF061H55
     K07L15A  C2009 02 23.34541 13 01 14.95 -00 00 39.5          22.6 V EF061H55
     K07L15A  C2009 02 23.37229 13 01 14.21 -00 00 25.5          22.8 V EF061H55
     K07L15A  C2009 03 22.25028 12 38 21.41 +05 10 58.2          21.9 V EF061H55
     K07L15A  C2009 03 22.26686 12 38 20.15 +05 11 11.8          22.1 V EF061H55
     K07L15A  C2009 03 22.28306 12 38 18.96 +05 11 24.7          22.0 V EF061H55

Observer details:
H55 Astronomical Research Observatory, Charleston.  Observer R. Holmes.
    Measurer H. Devore.  0.81-m f/4.5 astrograph + CCD.

First and last observations above in comparison with prediction:
Residuals in seconds of arc, reference and Delta-T
090223 H55 62.7+ 18.6-    090322 H55 75.3+ 20.9-    MPO128916   -0.053 day

Orbital elements:
2007 LA15                                                Earth MOID = 0.0574 AU
Epoch 2009 June 18.0 TT = JDT 2455000.5                 MPC
M 285.49857              (2000.0)            P               Q
n   0.43433741     Peri.  176.92927     +0.86280731     +0.50072183
a   1.7268365      Node   152.67181     -0.46698706     +0.84214758
e   0.3811304      Incl.    8.71728     -0.19361465     +0.20016271
P   2.27           H   19.6           G   0.15           U   1
Residuals in seconds of arc
070613 703  0.6+  0.8-    070707 160  0.1+  0.1-    070804 151  0.0   0.3+
070613 703  0.2-  0.8-    070707 160  0.1-  0.1-    070804 560  0.1+  0.2-
070613 703  0.6-  0.4-    070707 160  0.1+  0.0     070804 560  0.4+  0.2-
070613 703  0.4-  0.3-    070707 160  0.1-  0.0     070804 560  0.2+  0.3-
070613 703  0.5-  0.1+    070708 H45  0.7+  0.4-    070808 H45  0.1+  0.1-
070613 703  0.1+  0.0     070708 H45  0.0   0.1+    070808 H45  0.0   0.1+
070613 703  0.6-  0.0     070708 H45  0.2+  0.1+    070808 H45  0.2+  0.1-
070613 A74  0.9-  0.4+    070708 H45  0.2+  0.1-    070808 H45  0.3+  0.1+
070613 A74  0.3-  0.4+    070708 H45  0.2+  0.1-    070808 H45  0.1-  0.1+
070613 A74  0.0   0.2+    070708 B38  0.1+  0.0     070808 H45  0.3-  0.1-
070613 A74  0.1+  0.2+    070708 B38  0.0   0.4-    070809 B38  0.1-  0.2+
070613 A74  0.0   0.1+    070708 B38  0.5+  0.4+    070809 B38  0.2-  0.0
070613 A74  0.1+  0.1+    070708 B38  0.2+  0.1-    070809 B38  0.2-  0.1-
070613 A74  0.2+  0.3+    070709 198  0.1+  0.1-    070809 B38  0.5-  0.1-
070613 A55  0.4+  0.2+    070709 198  0.2+  0.0     070809 B38  0.2-  0.2-
070613 A74  0.1-  0.2+    070709 198  0.2+  0.0     070809 B38  0.1-  0.2-
070613 A55  0.3+  0.1+    070709 198  0.3+  0.2+    070809 B38  0.0   0.4-
070613 A55  0.3+  0.4+    070709 198  0.3+  0.1+    070809 B38  0.2+  0.8-
070614 673  0.2+  0.1+    070711 A78  0.5-  0.3-    070810 H45  0.3+  0.2+
070614 673  0.3+  0.2+    070711 A78  0.0   0.5-    070810 H45  0.0   0.2+
070614 673  0.2+  0.2+    070711 A78  0.3-  0.8-    070810 H45  0.0   0.1-
070614 673  0.2+  0.1+    070712 H45  0.2+  0.1+    070810 H45  0.0   0.1-
070614 H55  0.4+  0.4-    070712 H45  0.7+  0.6-    070810 H45  0.1+  0.0
070614 H55  0.0   0.1-    070712 H45  0.1+  0.7-    070810 H45  0.2-  0.5+
070614 H55  0.1+  0.1+    070712 H45  0.7+  0.2-    070812 704  1.7-  0.5+
070614 H55  0.1+  0.0     070712 H45  0.2-  0.3-    070812 704  0.1+  0.3+
070614 H55  0.1+  0.1-    070712 H45  0.1-  0.1+    070812 704  1.5-  0.4+
070614 H55  0.0   0.0     070713 A17  0.1-  0.1-    070812 704  1.0-  0.1+
070615 649  0.1+  0.4-    070713 A17  0.1-  0.0     070813 H45  0.2-  0.2-
070615 649  0.3-  0.3-    070713 A17  0.1-  0.0     070813 H45  0.1+  0.1+
070615 649  0.0   0.2-    070715 H45  0.2+  0.1-    070813 H45  0.2+  0.4+
070615 649  0.2+  0.2-    070715 H45  0.4+  0.3-    070813 H45  0.3-  0.0
070615 649  0.3-  0.1-    070715 H45  0.2+  0.2-    070813 H45  0.1+  0.3-
070616 H55  0.1+  0.2-    070715 H45  0.1+  0.2+    070813 H45  0.1+  0.1-
070616 H55  0.1-  0.2-    070715 H45  0.2+  0.2-    070814 B38  0.1-  1.4-
070616 H55  0.4+  0.0     070715 H45  0.3+  0.2-    070814 B38  0.0   1.1-
070616 H55  0.4+  0.2-    070715 704  0.7+  0.2-    070814 B38  0.6-  0.4-
070616 H55  0.0   0.1-    070715 704  0.3+  0.2-    070814 B38  0.5-  0.1-
070616 H55  0.2-  0.3+    070715 704  0.1-  0.1+    070814 B38  0.0   0.1-
070616 291  0.3-  0.2-    070715 704  0.3+  0.4-    070814 B38  0.1-  0.2+
070616 291  1.0-  0.0     070716 A53  0.5+  0.8+    070814 B38  0.5+  0.4-
070616 291  0.2-  0.4-    070716 A53  0.0   0.6-    070814 B38  0.2+  0.3+
070616 198  0.0   0.1+    070716 A53  0.5-  0.4+    070816 H45  0.4+  0.6+
070616 198  0.0   0.2+    070717 B38  0.5-  0.5-    070816 H45  0.2+  0.3+
070616 198  0.0   0.1+    070717 B38  0.0   0.2-    070816 H45  1.0+  0.5-
070616 113  0.2+  0.5-    070719 H45  0.1-  0.2+    070816 H45  0.1-  0.6+
070616 198  0.0   0.1+    070719 H45  0.0   0.2-    070816 H45  0.7+  0.4+
070616 198  0.0   0.1+    070719 H45  0.3-  0.3-    070816 H45  0.1+  0.7+
070616 113  0.1-  0.1+    070719 H45  0.2-  0.6-    070816 H45  0.1-  0.8+
070616 113  0.1+  0.1-    070719 H45  0.1-  0.7-    070817 B38  0.4-  0.1-
070617 H55  0.1-  0.0     070719 H45  0.2+  0.7-    070817 B38  0.1-  0.1+
070617 H55  0.1-  0.1+    070723 071  0.4+  1.2+    070817 B38  1.4+  0.1-
070617 H55  0.0   0.1-    070723 071  0.5+  1.4+    070817 B38  0.3+  0.5+
070617 H55  0.3-  0.1+    070723 071  0.1+  1.4+    070817 B38  0.1-  0.9+
070619 F65  0.1+  0.1-    070724 H45  0.4-  0.1+    070817 B38  0.0   0.2+
070619 F65  0.4+  0.3+    070724 H45  0.1+  0.3-    070817 B38  0.3-  0.4+
070619 F65  0.2-  0.0     070724 H45  0.3+  0.2-    070817 B38  0.2+  0.8+
070619 F65  0.2-  0.0     070724 H45  0.0   0.2-    070824 H45  0.2-  0.8+
070619 F65  0.1-  0.0     070724 H45  0.1-  0.1-    070824 H45  0.3+  0.9+
070621 703  0.1+  0.8+    070724 H45  0.0   0.3-    070824 H45  0.1-  0.7+
070621 703  0.4-  0.4-    070725 160  0.3-  0.3+    070824 H45  0.3-  0.3+
070621 703  0.6+  0.1-    070725 160  0.2+  0.0     070824 H45  0.1-  0.4+
070621 703  0.1-  0.4+    070725 160  0.3+  0.0     070824 H45  0.1+  0.0
070624 G88  0.1+  0.2+    070725 160  0.1+  0.7+    070825 204  0.5+  0.2-
070624 G88  0.5-  1.0+    070725 160  0.3-  0.3-    070825 204  0.6+  0.4-
070624 G88  0.0   0.0     070726 151  0.7-  0.8+    070913 E12  0.2-  0.3-
070625 H45  0.1+  0.0     070726 151  1.5-  0.7+    070913 E12  0.1+  0.1-
070626 560  0.5-  0.0     070726 151  1.5-  0.6+    070913 E12  0.3+  0.1-
070626 560  0.5-  0.1+    070728 B38  0.4+  0.1+    070919 808  0.2+  0.1-
070626 560  0.5-  0.1+    070728 B38  0.1-  0.6-    070919 808  0.9-  0.1-
070630 941  0.0   0.4-    070728 B38  0.3+  0.4-    070919 808  0.6+  0.6-
070630 941  0.0   0.3-    070728 B38  0.5+  0.1+    070919 808 (3.6+  0.7-)
070630 941  0.1-  0.2-    070731 151  0.3+  0.4+    070920 E12  0.5+  0.3-
070630 941  0.3-  0.0     070731 151  0.3+  0.1-    070920 E12  0.5+  0.0
070704 H45  0.2-  0.4+    070731 151  0.4+  0.3-    070920 E12  0.2+  0.2-
070704 H45  0.3+  0.0     070731 151  0.5+  0.2-    070920 E12  0.1+  0.0
070704 H45  0.1+  0.1+    070731 151  0.0   0.2-    070924 808  1.0+  0.2-
070704 H45  0.9+  0.7+    070731 151  0.1+  0.3-    070924 808  1.8-  0.2-
070704 H45  0.1-  0.4+    070801 A48  0.2-  0.3-    070924 808  0.0   0.3-
070704 H45  0.4+  0.2+    070801 A48  0.3+  0.4-    071005 E12  0.5+  0.0
070705 560  0.2+  0.0     070801 A48  0.2-  0.5-    071005 E12  0.5+  0.1+
070705 560  0.3+  0.4-    070801 A48  0.3+  0.5-    071005 E12  0.2+  0.2-
070705 560  0.1-  0.2-    070801 560  0.1+  0.5+    071105 703  0.6-  0.2-
070706 130  0.4+  0.4+    070801 560  0.0   0.3+    071105 703  1.7-  0.6-
070706 130  0.1-  0.3-    070801 560  0.1-  0.6+    071105 703  0.5+  1.0-
070706 130  0.1+  0.1-    070803 J87  0.1+  0.0     071105 703  1.1-  1.6-
070707 H45  0.1+  0.1-    070803 J87  0.0   0.1-    090223 H55  0.3+  0.6+
070707 H45  0.2+  0.2+    070803 J87  0.1+  0.1+    090223 H55  0.3-  0.4+
070707 H45  0.0   0.4-    070804 808  0.1+  1.3-    090223 H55  0.6-  0.2+
070707 H45  0.3-  0.1-    070804 808 (0.5+  2.1-)   090322 H55  0.2+  0.5-
070707 H45  0.1+  0.1-    070804 808 (0.4+  2.2+)   090322 H55  0.0   0.1-
070707 H45  0.1+  0.3-    070804 151  0.1+  0.1-    090322 H55  0.5+  0.1-
070707 160  0.1+  0.5+    070804 151  0.1+  0.2+

Ephemeris:
2007 LA15                a,e,i = 1.73, 0.38, 9                   q = 1.0687
Date    TT    R. A. (2000) Decl.     Delta      r     Elong.  Phase     V
2009 03 20    12 41.04   +04 41.2    1.168    2.152   168.3     5.4    22.0
2009 03 30    12 28.52   +06 53.1    1.131    2.121   169.3     5.0    21.9
2009 04 09    12 15.52   +08 54.1    1.122    2.087   158.6    10.1    22.1
2009 04 19    12 03.75   +10 30.8    1.139    2.052   146.3    15.7    22.3
2009 04 29    11 54.61   +11 35.4    1.176    2.014   134.5    20.9    22.5
2009 05 09    11 48.98   +12 06.2    1.228    1.975   123.6    25.2    22.7
2009 05 19    11 47.10   +12 05.9    1.289    1.933   113.8    28.6    22.8
2009 05 29    11 48.83   +11 38.5    1.355    1.890   104.9    31.2    23.0

Gareth V. Williams           (C) Copyright 2009 MPC           M.P.E.C. 2009-F61

Read MPEC 2009-F60 Read MPEC 2009-F62


Our Web policy. Index to the CBAT/MPC/ICQ pages.


Valid HTML 4.01!